Погода в Яраг-Казмаляре

Россия / Республика Дагестан     41°38′48″N   48°23′09″E
темп.,
°C
ветер,
м/с
пор.,
м/с
влажн.,
%
обл.,
%
осадки,
мм/ч
давл.,
гПа
погр.,
м
17 апреля, сб
сб1700:00+11ю22685 0.0 102010
03:00+10ю11692 0.0 101910
06:00+12ю11645 0.0 102015
09:00+19вюв33486 0.0 1018441
12:00+21в4446100 0.0 1016682
15:00+19ссв335244 0.0 1015290
18:00+12ссз48789 0.0 1017207
21:00+12зсз347447 0.0 101858
18 апреля, вс
вс1800:00+13сз33715 0.0 101833
03:00+11сз117717 0.0 101911
06:00+12зсз1580100 0.0 1020182
09:00+15ссз2371100 0.0 1020349
12:00+17ссв4359100 0.0 1018713
15:00+17с445211 0.1 1017552
18:00+12ссз1366100 0.1 101882
21:00+13зсз2356100 0.1 101942
19 апреля, пн
пн1900:00+12зсз2262100 0.0 101936
03:00+11ссв2270100 0.0 101824
06:00+12зюз2271100 0.0 101948
09:00+18всв325920 0.0 1018546
12:00+20в435083 0.0 1017711
15:00+19в444599 0.0 1016595
18:00+15вюв34638 0.0 101687
21:00+13ю346418 0.0 101656
20 апреля, вт
вт2000:00+12юв2266100 0.0 101524
03:00+12ю1169100 0.0 101310
06:00+12зсз1174100 0.0 101228
09:00+18вюв3359100 0.0 1011324
12:00+22вюв565158 0.0 1007571
15:00+21в435597 0.0 1005303
18:00+16ссз2272100 0.0 100443
21:00+13сз4679100 0.0 1006108
21 апреля, ср
ср2100:00+15сз61370100 0.0 1008287
03:00+14сз51378100 0.0 1013658
06:00+13в1183100 0.0 101581
09:00+16с3466100 0.0 1016576
12:00+18с88576 0.0 1017786
15:00+16с5863100 0.0 1018614
18:00+13ссз267988 0.3 1019257
21:00+14юз1174100 0.3 102025